SCP
0 0 0 0 0 0 0 0 0 1 2 2 2 2 4 6 8 9 8 8 9 9 7 7 7 8 10 11 12 11 9 7 7 7 8 9 8 8 8 9 8 8 8 8
0 0 0 0 0 0 0 0 1 1 2 2 2 3 4 6 7 7 7 8 8 8 7 7 7 7 8 9 11 11 9 7 6 7 8 8 8 8 9 10 10 9 9 8
1 0 0 0 0 0 0 1 1 2 2 3 3 4 6 7 6 5 4 5 7 8 8 8 8 8 8 9 11 10 8 6 6 7 7 8 8 10 11 12 12 12 11 10
1 1 1 0 0 0 1 1 1 2 2 3 4 6 8 10 10 7 5 5 6 7 8 9 9 10 10 10 11 9 8 7 7 7 9 10 11 13 15 15 16 15 14 12
1 1 1 1 1 1 1 2 2 2 2 3 4 6 9 11 11 9 7 6 6 7 8 9 10 10 11 11 11 10 9 9 10 10 10 11 14 17 20 21 20 19 17 15
2 1 1 1 1 1 2 3 4 4 5 5 5 6 8 9 9 7 6 6 6 7 9 10 11 11 12 13 13 13 14 14 13 12 11 11 14 18 23 25 25 23 21 19
2 2 1 1 1 1 2 3 5 6 7 7 7 7 8 8 7 6 5 6 7 8 10 12 13 13 13 14 14 14 15 16 15 13 11 10 12 16 21 25 26 26 24 23
2 2 1 1 1 2 3 4 5 7 9 9 8 8 9 9 9 7 5 6 8 10 11 14 16 15 14 14 14 13 13 14 15 14 12 10 11 13 16 19 21 23 24 24
2 2 3 4 4 4 5 5 5 6 9 9 8 8 9 9 9 9 7 6 7 9 12 14 15 14 13 13 14 13 12 13 13 13 12 11 11 12 13 14 15 17 20 21
3 3 5 6 6 6 5 5 4 6 8 9 9 8 8 8 8 9 9 8 7 8 10 12 13 12 11 12 13 13 12 12 11 11 11 11 11 12 11 12 12 13 15 17
3 4 5 5 5 5 5 4 4 5 7 9 9 8 8 8 9 10 10 10 9 10 12 13 13 11 10 10 11 11 10 11 12 12 12 13 13 12 10 10 10 10 11 13
4 4 4 4 3 3 4 4 4 5 8 10 10 8 7 8 10 11 11 11 11 14 16 16 14 12 12 14 15 14 12 12 13 14 14 14 14 11 8 7 6 5 6 7
4 4 5 5 4 3 3 4 5 7 9 10 10 9 8 10 13 13 13 12 13 16 18 17 15 14 16 18 19 17 14 12 11 12 12 11 10 10 8 5 4 3 2 2
4 4 5 5 4 4 4 5 7 9 10 11 11 11 12 13 15 15 14 13 13 16 17 16 14 15 16 17 17 15 11 9 9 9 8 7 7 7 6 6 7 5 3 1
6 5 5 5 5 5 5 6 9 10 12 13 14 13 13 14 14 14 14 13 13 14 13 13 12 12 12 12 11 9 8 7 7 7 6 6 5 5 5 7 9 7 5 4
9 7 5 5 6 7 7 8 10 11 12 15 16 13 12 12 14 14 14 13 12 11 11 10 9 9 10 10 8 7 6 6 6 6 5 5 5 5 6 9 10 10 7 5
9 8 6 5 6 7 9 9 10 9 10 12 13 11 10 13 15 14 13 12 11 10 9 9 8 8 9 9 8 7 6 5 4 4 4 4 5 6 7 8 10 10 7 5
7 8 7 5 5 7 9 9 9 8 7 8 9 8 11 14 15 13 12 11 10 10 10 9 8 7 7 7 7 6 6 5 4 4 4 3 4 4 5 6 8 9 8 7
5 7 8 6 6 8 9 9 8 8 8 8 8 9 12 15 14 12 11 11 10 10 10 9 8 7 6 6 5 5 5 4 4 4 4 4 4 5 5 6 7 9 10 10
5 6 7 8 9 10 9 8 8 10 10 9 10 12 14 14 13 11 10 10 10 10 10 9 9 8 6 6 5 5 5 5 5 6 6 6 7 7 7 8 8 8 8 8
5 6 7 8 9 8 7 6 7 11 13 12 12 14 14 13 12 10 9 9 10 10 9 9 9 8 6 6 6 7 7 7 7 7 7 7 7 7 6 6 6 5 5 4
4 5 6 6 6 5 4 4 5 9 14 14 13 12 12 11 10 9 8 8 8 8 8 8 7 7 6 7 7 7 7 7 7 6 6 5 5 5 4 4 3 3 4 4
3 3 3 3 3 3 3 3 3 6 10 12 12 11 11 10 8 7 7 6 6 6 6 6 5 5 6 7 7 7 6 5 5 5 4 4 5 5 5 4 3 3 3 3
2 2 1 1 2 2 2 2 3 4 5 7 9 10 10 9 7 6 6 5 4 4 4 3 3 3 5 6 6 5 4 4 4 4 5 5 6 5 5 5 4 4 3 3
1 1 1 1 2 2 2 2 2 3 3 4 6 8 8 8 7 6 5 4 3 3 3 2 2 3 3 3 3 3 2 2 2 3 5 6 6 5 4 4 4 3 2 2
1 1 1 2 2 2 2 2 2 2 3 3 4 6 6 6 6 6 5 4 3 3 4 4 3 3 3 2 1 1 1 1 1 2 3 4 4 4 4 3 3 2 1 1
1 1 2 2 2 1 1 1 1 1 2 2 3 4 4 5 5 5 4 3 4 5 5 5 4 3 2 1 1 1 1 1 1 1 2 3 3 3 3 3 3 2 1 1
Wind_Speed
13 14 12 12 13 13 13 12 10 8 8 7 5 5 6 7 7 7 7 8 7 7 7 6 6 6 5 6 6 6 7 7 6 6 5 5 5 5 4 4 4 3 3 3
14 16 15 14 13 14 14 12 10 7 4 3 2 3 5 5 5 5 5 6 6 6 6 6 6 6 6 6 5 6 6 6 5 5 5 5 5 5 4 4 4 3 4 3
12 14 14 16 13 13 12 11 10 6 4 4 3 3 4 5 4 4 4 4 4 5 5 5 6 5 6 6 6 6 6 6 6 6 6 5 6 5 5 4 4 4 4 4
11 12 17 10 10 11 9 8 7 5 5 4 4 4 4 5 5 4 3 3 4 4 5 5 5 5 4 6 6 6 6 6 6 6 6 6 5 5 4 4 4 4 4 4
10 12 14 10 10 10 8 7 5 3 3 3 2 2 3 3 4 4 3 3 2 3 4 5 6 5 5 5 6 6 6 6 6 6 5 5 5 4 4 3 4 4 3 4
10 12 13 8 8 8 7 7 4 2 1 1 1 2 1 2 4 3 3 2 2 3 3 3 4 5 5 5 5 5 5 4 4 4 5 5 4 4 3 3 4 4 4 4
11 12 9 7 6 7 8 2 2 1 3 3 3 2 3 3 4 4 3 3 3 3 2 3 4 4 4 3 3 3 3 3 3 4 4 4 4 4 3 4 4 4 4 4
11 12 9 5 4 2 2 4 4 2 2 2 3 3 3 4 4 3 2 2 3 3 3 4 4 4 4 3 3 3 3 3 3 3 4 4 3 3 4 4 5 5 4 4
5 4 1 3 3 3 4 4 5 4 3 2 2 2 3 3 2 2 1 1 2 3 4 4 3 3 3 3 3 3 4 3 3 3 3 3 4 4 4 3 4 5 4 4
4 4 2 2 2 3 3 3 4 4 4 4 4 4 3 2 2 1 1 1 1 2 3 3 3 2 2 2 3 3 3 3 3 3 3 2 2 3 3 4 4 4 4 4
4 3 2 1 2 2 2 3 4 5 4 4 4 4 4 2 1 1 1 1 1 1 2 2 3 3 2 2 2 2 2 3 3 3 3 2 2 2 3 3 3 3 3 2
4 2 3 2 2 4 3 3 4 5 5 4 3 4 4 2 1 0 1 0 1 1 2 2 2 2 2 2 2 2 3 3 3 3 3 3 3 2 1 2 2 2 2 2
4 4 4 3 3 3 4 4 4 4 5 5 4 3 3 2 1 1 1 1 1 2 2 2 3 3 3 2 2 3 3 3 3 3 3 3 3 3 2 1 1 1 1 2
4 4 3 4 4 4 5 5 5 5 5 4 3 3 3 2 1 1 1 1 1 1 2 2 2 2 2 2 2 2 2 3 3 2 3 3 3 3 3 3 2 1 2 3
5 5 4 4 5 5 5 6 6 5 5 3 3 3 3 2 2 1 1 1 1 1 1 2 1 1 1 2 2 3 3 2 2 2 3 3 3 4 3 3 2 2 2 1
6 6 4 5 6 6 6 6 5 5 5 3 2 2 2 2 1 1 1 1 2 1 1 1 1 1 1 2 2 2 2 3 3 2 3 3 3 3 2 2 2 2 2 1
7 6 6 6 6 6 5 5 4 4 4 3 2 2 2 1 1 1 0 1 1 2 2 1 1 1 1 2 2 2 2 2 3 3 3 3 2 2 1 1 2 2 1 1
6 6 6 6 6 5 4 5 4 3 2 2 2 3 2 1 1 1 1 1 1 1 1 1 0 1 2 1 1 2 3 3 3 3 3 2 2 2 2 2 2 1 1 1
6 6 6 6 5 4 4 3 3 2 3 2 2 2 1 1 1 0 1 1 1 1 1 1 2 2 1 1 1 2 3 3 2 2 2 2 3 3 2 2 2 1 1 1
5 5 4 4 4 4 3 2 3 2 2 2 1 2 1 1 1 0 1 1 1 1 1 2 1 1 1 0 2 3 3 3 2 2 2 3 2 2 1 1 1 1 0 0
3 3 3 3 3 3 2 2 2 2 1 1 1 1 1 1 1 0 1 1 1 1 1 0 0 1 1 2 3 2 1 1 1 1 2 1 1 1 0 0 0 0 1 1
3 3 3 3 2 2 2 2 2 2 1 1 1 1 0 1 0 1 2 1 1 1 0 1 1 2 2 2 2 1 1 1 1 1 1 0 0 0 1 1 1 1 1 1
3 3 2 2 2 2 2 1 1 1 1 1 1 1 1 0 0 1 1 1 1 1 0 1 2 2 2 1 1 0 0 0 0 0 0 1 1 1 1 1 1 1 1 2
2 2 2 2 2 2 3 2 1 1 1 1 1 1 1 0 1 1 1 2 2 1 1 2 3 2 1 1 1 1 1 1 1 1 1 1 1 1 1 1 2 2 2 3
2 2 1 1 1 2 1 1 0 1 1 1 0 1 0 1 1 1 2 2 2 1 2 2 2 1 0 1 1 2 2 2 3 2 2 2 2 3 3 3 3 2 2 2
2 2 1 1 1 1 1 1 1 1 1 0 1 1 1 1 1 1 2 2 2 2 1 1 1 1 1 1 2 2 2 3 3 3 3 3 4 4 4 4 5 3 3 3
1 1 1 0 1 1 1 1 0 0 0 0 0 1 2 1 1 1 2 2 2 1 1 1 1 1 1 2 2 2 3 3 3 4 4 4 4 4 4 5 4 3 3 3
Wind_Direction
259 264 251 243 235 234 238 241 234 224 210 196 177 172 153 145 143 141 145 142 136 141 147 156 159 153 160 170 169 173 174 181 183 182 182 184 187 192 190 196 212 210 212 218
255 257 256 253 245 236 238 244 243 227 217 197 172 152 133 129 141 143 137 136 139 142 151 159 160 163 165 168 169 168 177 184 178 178 181 189 192 192 193 198 213 213 212 221
255 250 248 248 247 241 232 233 239 227 207 177 177 153 143 142 146 138 135 141 147 146 156 162 165 166 168 171 171 172 180 185 180 180 185 191 201 195 198 202 210 218 218 217
254 252 246 249 253 251 249 250 235 212 193 197 194 157 136 124 119 116 135 148 151 156 164 174 167 161 167 174 174 176 183 189 185 186 190 190 196 198 199 201 209 216 219 220
253 244 241 242 248 251 247 251 250 228 210 212 177 133 96 82 94 102 102 108 136 154 175 171 166 164 168 175 174 179 187 191 188 188 191 196 200 199 199 206 213 218 216 216
248 245 244 238 249 261 248 238 260 265 329 30 172 204 83 85 91 89 95 107 120 134 159 161 153 152 162 174 172 185 189 189 187 186 191 197 201 200 202 209 218 221 223 220
243 249 255 269 272 266 242 239 353 23 54 49 48 32 62 71 82 86 105 123 125 130 137 127 126 134 152 160 181 181 174 177 185 191 195 201 198 194 197 208 217 224 228 226
233 241 243 297 285 291 22 30 25 32 48 34 40 52 52 70 76 83 79 117 130 126 122 119 126 139 158 173 175 166 165 176 193 203 215 206 197 204 208 213 216 220 226 233
234 231 341 3 59 62 36 29 21 16 24 8 359 31 44 61 73 80 80 80 112 116 118 127 139 150 180 182 165 166 167 179 193 208 223 211 202 211 218 220 226 225 221 229
235 209 229 325 32 52 41 16 6 3 1 354 355 355 8 64 54 40 56 63 101 120 134 138 142 149 185 163 158 163 174 177 187 207 214 213 218 216 218 225 232 232 231 228
237 233 247 259 342 4 10 355 345 339 337 343 347 350 355 17 87 44 23 49 115 141 141 138 137 144 157 158 157 175 185 187 203 212 209 211 217 226 226 238 237 234 245 237
254 286 290 307 348 344 334 322 324 327 328 324 330 331 335 341 31 324 285 254 166 156 154 151 150 151 154 180 176 185 198 204 211 219 211 206 205 225 278 248 250 224 210 214
295 294 300 301 303 313 314 317 316 320 323 320 327 326 326 325 265 252 233 234 199 176 161 155 161 168 166 173 182 201 213 215 219 222 220 219 214 217 225 257 319 289 253 221
311 299 287 288 293 297 298 304 304 304 304 308 324 328 330 334 314 268 235 222 207 160 153 155 154 160 161 169 186 204 225 233 224 224 229 234 226 228 226 218 216 227 249 230
288 277 271 280 279 279 282 284 283 291 300 307 326 327 328 317 307 295 267 212 160 159 150 136 137 147 149 182 195 214 230 236 235 240 246 250 243 240 239 232 227 213 205 202
271 265 270 272 270 269 268 269 271 284 297 305 316 316 306 293 284 279 272 179 157 184 151 142 170 187 196 208 206 215 223 228 235 249 254 257 251 245 237 226 221 223 220 205
260 259 261 263 267 267 272 276 279 284 285 293 307 298 286 273 266 245 168 104 140 159 152 160 177 173 194 202 224 237 235 227 233 246 247 255 256 237 235 243 233 220 218 192
259 261 263 267 272 270 279 289 282 281 292 315 325 306 305 303 270 204 140 120 94 94 124 149 188 193 203 217 229 250 244 226 223 230 241 255 262 244 235 238 241 229 198 179
248 252 258 264 270 269 272 277 291 305 315 303 309 323 346 319 306 191 112 110 110 81 18 311 260 239 218 194 240 251 253 249 236 233 244 241 243 243 239 235 234 220 202 180
265 260 262 267 266 259 255 272 293 301 308 316 332 331 333 330 309 254 112 107 50 15 18 357 325 307 261 243 282 252 240 236 241 248 251 250 245 245 244 240 238 236 199 173
284 273 265 262 261 262 264 272 283 280 273 251 266 308 341 9 1 184 167 153 79 30 285 210 21 24 0 328 281 265 266 266 255 254 262 262 268 267 252 312 330 27 34 21
296 289 282 287 288 301 312 297 286 286 276 260 237 264 349 9 62 98 93 98 80 57 53 84 66 26 342 305 287 296 288 280 283 288 280 293 348 18 54 38 20 16 26 38
314 323 329 335 327 324 311 304 302 306 310 299 286 278 276 305 269 181 154 96 108 107 72 32 30 28 353 302 296 206 252 292 332 54 39 50 65 51 41 36 35 29 41 58
323 313 323 339 351 332 311 305 344 9 345 341 307 308 318 182 103 99 102 84 55 88 70 48 51 27 310 282 309 35 67 91 92 77 63 69 77 74 68 53 44 42 48 52
294 307 314 304 283 273 276 302 349 171 217 241 30 78 76 45 66 72 75 79 87 86 74 76 74 61 14 340 65 74 64 54 60 63 70 69 67 69 72 76 73 63 57 49
303 297 298 301 297 307 301 287 230 228 242 34 38 48 63 71 86 93 98 104 99 96 86 85 86 90 45 32 63 82 82 78 81 77 73 70 68 71 70 69 70 66 62 60
297 277 261 249 258 273 278 273 223 163 278 299 23 53 53 62 79 87 89 94 100 100 98 102 102 97 85 77 76 78 82 82 76 73 72 73 72 73 70 70 67 66 62 62